Lid_Strength_Index
9 8 10 11 11 12 11 11 11 10 10 11 12 13 12 13 14 13 13 14 14 15 15 16 16 16 17 17 17 17 18 18 18 18 18 18 17 17 17 17 17 16 16
10 9 11 12 12 11 12 12 11 11 10 10 11 12 11 14 13 14 15 14 15 15 15 16 16 17 18 18 18 17 18 18 18 19 19 20 19 18 17 17 17 17 17
11 10 12 12 13 13 13 12 12 12 11 11 12 16 16 17 16 17 16 16 15 16 16 16 16 17 17 17 18 18 18 18 19 19 18 20 20 20 18 18 18 18 18
12 12 12 13 12 12 13 13 12 13 12 12 13 13 13 14 13 13 14 15 15 16 16 16 16 17 17 18 18 18 18 18 19 18 17 18 19 20 21 19 18 18 18
13 12 12 13 13 13 14 14 13 13 12 12 12 13 13 12 15 15 15 16 16 16 16 16 17 17 17 18 18 18 18 19 19 19 19 19 19 19 20 21 20 19 19
12 12 12 13 14 15 16 15 15 14 14 13 13 13 13 16 16 17 16 16 17 17 17 17 17 17 17 18 18 18 18 19 19 19 19 19 20 20 20 21 20 20 19
13 13 13 13 14 16 16 16 15 15 15 14 14 14 14 16 15 16 15 16 17 17 17 17 17 18 17 18 18 18 18 18 19 19 19 19 19 18 19 20 20 21 19
13 13 13 14 15 16 16 16 16 16 16 15 15 15 15 15 15 16 15 16 16 15 16 17 17 17 18 18 18 18 18 19 18 19 19 19 19 18 18 19 20 21 20
12 13 12 14 14 16 16 16 16 15 16 16 15 16 15 16 15 17 16 16 15 16 17 17 17 18 18 18 18 18 19 19 19 19 19 19 19 19 19 19 19 20 22
9 10 12 13 14 15 15 16 16 15 15 16 15 15 15 15 15 16 16 16 16 16 17 17 17 18 18 18 18 19 19 19 19 19 19 19 19 19 19 18 19 20 22
11 12 12 12 12 13 14 15 15 16 16 16 16 16 16 16 16 16 16 16 16 16 17 17 17 18 18 18 18 18 19 19 20 20 20 20 19 20 20 20 21 21 21
13 12 12 12 12 12 11 12 14 15 15 16 16 16 16 17 17 17 16 16 16 16 16 17 18 18 18 18 18 19 19 19 20 20 20 20 20 21 21 21 22 22 22
13 13 13 13 13 13 12 12 12 13 14 14 16 16 16 17 16 16 16 17 16 16 16 17 17 18 18 18 18 19 19 20 20 20 20 20 21 22 22 22 22 22 22
13 13 13 13 13 13 13 13 13 13 13 14 16 16 16 15 15 15 16 16 16 17 17 17 17 17 18 18 19 19 19 19 20 20 20 21 21 21 22 22 22 22 23
14 13 12 12 13 13 13 13 13 13 13 14 14 14 15 15 15 15 15 16 17 17 17 18 18 18 18 18 19 19 19 20 20 20 20 21 20 19 20 21 22 22 23
14 12 12 13 13 12 13 14 13 13 13 14 14 14 14 16 16 16 16 17 17 17 17 18 18 19 18 16 15 17 19 19 20 21 21 21 20 18 17 17 18 20 24
13 12 13 14 13 13 12 13 13 12 13 13 13 14 14 15 16 17 17 17 17 17 18 18 18 18 18 16 14 15 18 19 20 20 21 21 20 20 19 16 17 17 17
13 13 14 14 13 14 14 13 13 13 13 14 14 14 15 16 16 18 17 17 18 18 18 18 18 18 18 15 14 15 18 19 20 20 21 21 20 20 19 19 18 18 18
11 13 15 14 14 14 15 14 15 14 14 13 14 14 14 15 15 15 16 17 18 18 17 17 17 18 18 15 14 15 19 19 20 20 20 20 20 18 17 20 20 20 19
12 13 13 14 15 15 14 16 17 16 16 15 14 15 16 17 17 16 17 15 16 17 17 17 17 17 18 15 13 15 19 20 20 20 20 18 19 17 16 20 21 22 20
12 13 13 14 13 13 14 15 16 17 16 16 17 15 14 16 16 17 19 18 17 17 18 19 18 18 18 18 13 13 18 19 20 20 20 19 17 16 15 16 19 20 18
13 12 13 14 13 13 14 15 16 16 16 16 15 16 15 15 16 18 19 20 18 18 20 22 22 20 19 17 13 12 17 17 20 20 20 19 16 16 15 15 15 15 19
12 13 15 15 14 15 15 17 16 18 18 18 18 18 17 16 17 17 18 18 19 20 20 21 21 21 20 18 14 12 14 16 19 19 18 17 15 15 14 14 15 18 22
13 13 15 15 16 16 16 17 17 18 20 21 21 20 20 18 15 17 16 18 19 20 20 21 21 21 21 19 17 14 14 16 18 17 18 17 16 15 19 17 17 21 22
13 14 14 15 16 16 17 18 18 19 21 21 22 22 21 20 17 16 16 17 16 17 19 19 19 20 21 20 17 15 16 17 19 18 19 19 20 21 22 23 23 22 22
13 14 15 15 16 17 18 19 19 20 22 23 22 22 21 20 19 17 17 14 14 15 15 14 16 18 17 17 16 14 13 15 16 19 20 22 22 22 24 24 23 23 23